This demonstration page uses our WeatherBlox Daily Observations layout. Learn more.

40.92945, -100.16068

Hourly Observations for April 15, 2018

Temp ( °F °C ) Dew Point ( °F °C ) Humidity (%) Winds ( mph kmh ) Pressure ( in mb ) Visibility ( mi km ) Precip ( " mm )
12:15 am 00:15 Partly Cloudy 22 -5.5 17 -8.3 81 81 NNW 14 22 30.27 1025 10 16.0934 0 0
12:35 am 00:35 Clear 21 -6.1 16 -8.9 81 81 NW 10 17 30.27 1025 10 16.0934 0 0
12:55 am 00:55 Clear 20 -6.4 16 -9.1 81 81 NW 9 15 30.27 1025 10 16.0934 0 0
1:15 am 01:15 Clear 21 -6.2 16 -9.1 80 80 NNW 12 19 30.27 1025 10 16.0934 0 0
1:35 am 01:35 Partly Cloudy 20 -6.5 15 -9.3 81 81 NW 8 13 30.27 1025 10 16.0934 0 0
1:55 am 01:55 Mostly Cloudy 19 -7.1 15 -9.5 83 83 WNW 7 11 30.27 1025 10 16.0934 0 0
2:15 am 02:15 Partly Cloudy 18 -7.7 14 -10.1 83 83 NW 6 9 30.3 1026 10 16.0934 0 0
2:35 am 02:35 Clear 18 -8 13 -10.4 83 83 WNW 9 15 30.3 1026 10 16.0934 0 0
2:55 am 02:55 Clear 18 -7.7 14 -10.2 82 82 WNW 12 19 30.3 1026 10 16.0934 0 0
3:15 am 03:15 Clear 18 -7.8 13 -10.3 82 82 WNW 12 19 30.3 1026 10 16.0934 0 0
3:35 am 03:35 Clear 17 -8.1 13 -10.5 83 83 NW 14 22 30.3 1026 10 16.0934 0 0
3:55 am 03:55 Clear 17 -8.2 13 -10.6 83 83 NW 12 19 30.3 1026 10 16.0934 0 0
4:15 am 04:15 Clear 18 -8 13 -10.5 82 82 WNW 14 22 30.3 1026 10 16.0934 0 0
4:35 am 04:35 Clear 16 -9 12 -11.2 84 84 WNW 16 26 30.3 1026 10 16.0934 0 0
4:55 am 04:55 Clear 16 -8.7 12 -11 84 84 WNW 17 28 30.33 1027 10 16.0934 0 0
5:15 am 05:15 Clear 17 -8.5 12 -11 82 82 WNW 17 28 30.33 1027 10 16.0934 0 0
5:35 am 05:35 Clear 16 -8.7 12 -11.1 83 83 NW 18 30 30.33 1027 10 16.0934 0 0
5:55 am 05:55 Clear 16 -8.7 12 -11.2 82 82 NW 18 30 30.33 1027 10 16.0934 0 0
6:15 am 06:15 Clear 16 -9 11 -11.5 82 82 WNW 15 24 30.33 1027 10 16.0934 0 0
6:35 am 06:35 Clear 16 -9 11 -11.5 82 82 WNW 14 22 30.33 1027 10 16.0934 0 0
6:55 am 06:55 Clear 15 -9.2 11 -11.5 84 84 WNW 16 26 30.33 1027 10 16.0934 0 0
7:15 am 07:15 Sunny 16 -9 11 -11.5 82 82 WNW 14 22 30.36 1028 10 16.0934 0 0
7:35 am 07:35 Sunny 16 -8.7 12 -11.2 82 82 NW 14 22 30.36 1028 10 16.0934 0 0
7:55 am 07:55 Sunny 17 -8.3 12 -10.9 82 82 NW 13 20 30.36 1028 10 16.0934 0 0
8:15 am 08:15 Sunny 18 -7.8 13 -10.4 82 82 NW 13 20 30.36 1028 10 16.0934 0 0
8:35 am 08:35 Sunny 19 -7 14 -9.8 81 81 NW 16 26 30.36 1028 10 16.0934 0 0
8:55 am 08:55 Sunny 21 -6.2 15 -9.2 80 80 NNW 14 22 30.33 1027 10 16.0934 0 0
9:15 am 09:15 Sunny 24 -4.7 17 -8.6 74 74 NNW 17 28 30.33 1027 10 16.0934 0 0
9:35 am 09:35 Sunny 25 -4.1 17 -8.3 73 73 N 22 35 30.33 1027 10 16.0934 0 0
9:55 am 09:55 Sunny 25 -3.9 17 -8.3 72 72 N 18 30 30.33 1027 10 16.0934 0 0
10:15 am 10:15 Sunny 26 -3.1 18 -8 69 69 N 22 35 30.3 1026 10 16.0934 0 0
10:35 am 10:35 Sunny 27 -2.7 17 -8.1 67 67 N 21 33 30.3 1026 10 16.0934 0 0
10:55 am 10:55 Sunny 28 -2.3 18 -7.7 67 67 N 22 35 30.3 1026 10 16.0934 0 0
11:15 am 11:15 Sunny 28 -2.1 18 -7.8 65 65 NNW 22 35 30.33 1027 10 16.0934 0 0
11:35 am 11:35 Sunny 29 -1.7 18 -8 63 63 N 22 35 30.33 1027 10 16.0934 0 0
11:55 am 11:55 Sunny 30 -1.2 18 -7.6 62 62 NNW 21 33 30.33 1027 10 16.0934 0 0
12:15 pm 12:15 Sunny 31 -0.5 20 -6.8 63 63 NNW 22 35 30.3 1026 10 16.0934 0 0
12:35 pm 12:35 Sunny 31 -0.3 19 -7.1 61 61 N 20 31 30.3 1026 10 16.0934 0 0
12:55 pm 12:55 Sunny 32 0 21 -6.1 64 64 NNW 18 30 30.3 1026 10 16.0934 0 0
1:15 pm 13:15 Sunny 32 0.1 21 -6 64 64 NNW 18 30 30.3 1026 10 16.0934 0 0
1:35 pm 13:35 Sunny 33 0.6 22 -5.3 65 65 NNW 20 31 30.3 1026 10 16.0934 0 0
1:55 pm 13:55 Sunny 34 1.1 23 -4.8 65 65 NNW 18 30 30.27 1025 10 16.0934 0 0
2:15 pm 14:15 Sunny 34 1.2 23 -5.2 63 63 NNW 17 28 30.27 1025 10 16.0934 0 0
2:35 pm 14:35 Sunny 35 1.5 22 -5.5 60 60 NNW 18 30 30.27 1025 10 16.0934 0 0
2:55 pm 14:55 Sunny 35 1.9 23 -5.2 60 60 NNW 18 30 30.27 1025 10 16.0934 0 0
3:15 pm 15:15 Sunny 36 2.1 23 -4.8 61 61 N 18 30 30.24 1024 10 16.0934 0 0
3:35 pm 15:35 Sunny 37 2.5 23 -4.8 59 59 N 17 28 30.21 1023 10 16.0934 0 0
3:55 pm 15:55 Sunny 37 2.6 23 -5.1 57 57 N 16 26 30.21 1023 10 16.0934 0 0
4:15 pm 16:15 Sunny 37 2.9 23 -4.9 57 57 NNW 16 26 30.21 1023 10 16.0934 0 0
4:35 pm 16:35 Sunny 38 3.1 23 -4.9 56 56 N 16 26 30.24 1024 10 16.0934 0 0
4:55 pm 16:55 Sunny 37 2.9 23 -5.2 56 56 N 16 26 30.24 1024 10 16.0934 0 0
5:15 pm 17:15 Sunny 38 3.2 23 -5.1 55 55 N 16 26 30.21 1023 10 16.0934 0 0
5:35 pm 17:35 Sunny 38 3.1 22 -5.6 53 53 N 14 22 30.21 1023 10 16.0934 0 0
5:55 pm 17:55 Sunny 38 3.4 23 -5 55 55 N 15 24 30.21 1023 10 16.0934 0 0
6:15 pm 18:15 Sunny 38 3.1 22 -5.3 54 54 N 12 19 30.21 1023 10 16.0934 0 0
6:35 pm 18:35 Sunny 37 2.9 22 -5.7 54 54 NNW 14 22 30.21 1023 10 16.0934 0 0
6:55 pm 18:55 Sunny 37 2.5 22 -5.5 56 56 N 16 26 30.21 1023 10 16.0934 0 0
7:15 pm 19:15 Sunny 36 2 22 -5.8 57 57 N 12 19 30.21 1023 10 16.0934 0 0
7:35 pm 19:35 Sunny 35 1.5 22 -5.8 59 59 N 10 17 30.24 1024 10 16.0934 0 0
7:55 pm 19:55 Sunny 34 0.9 22 -5.5 63 63 NNW 10 17 30.27 1025 10 16.0934 0 0
8:15 pm 20:15 Sunny 32 0 21 -6 64 64 NNW 8 13 30.27 1025 10 16.0934 0 0
8:35 pm 20:35 Clear 30 -1.3 21 -6 71 71 N 8 13 30.3 1026 10 16.0934 0 0
8:55 pm 20:55 Clear 28 -2.1 21 -6.1 74 74 N 6 9 30.3 1026 10 16.0934 0 0
9:15 pm 21:15 Clear 27 -3 20 -6.5 77 77 N 5 7 30.3 1026 10 16.0934 0 0
9:35 pm 21:35 Clear 26 -3.5 20 -6.7 79 79 N 8 13 30.3 1026 10 16.0934 0 0
9:55 pm 21:55 Clear 25 -3.9 19 -7 79 79 NNE 6 9 30.33 1027 10 16.0934 0 0
10:15 pm 22:15 Clear 25 -4.1 19 -7.1 80 80 N 7 11 30.33 1027 10 16.0934 0 0
10:35 pm 22:35 Clear 22 -5.3 18 -7.7 83 83 N 7 11 30.33 1027 10 16.0934 0 0
10:55 pm 22:55 Clear 24 -4.7 19 -7.2 83 83 N 7 11 30.33 1027 10 16.0934 0 0
11:15 pm 23:15 Clear 22 -5.4 18 -7.9 83 83 NNE 7 11 30.36 1028 10 16.0934 0 0
11:35 pm 23:35 Clear 23 -5 18 -7.6 82 82 NNE 7 11 30.33 1027 10 16.0934 0 0
11:55 pm 23:55 Clear 21 -6.1 17 -8.6 83 83 N 5 7 30.33 1027 10 16.0934 0 0

Powered by AerisWeather